Regional Weather Roundup
Issued by NWS

Home | Current Version | Previous Version | Text Only | Print | Product List | Glossary On
Versions: 1 2 3 4 5 6 7 8 9 10 11 12 13 14 15 16 17 18 19 20 21 22 23 24 25 26 27 28 29 30 31 32 33 34 35 36 37 38 39 40 41 42 43 44 45 46 47 48 49 50
000
ASCA44 KEWX 220720
RWRMX

LATIN AMERICA AND CARIBBEAN REGIONAL WEATHER ROUNDUP
NATIONAL WEATHER SERVICE AUSTIN/SAN ANTONIO TX
200 AM CDT WED OCT 22 2014

NOTE: "FAIR" INDICATED FEW OR NO CLOUDS BELOW 12,000 FEET WITH NO
SIGNIFICANT WEATHER AND/OR OBSTRUCTIONS TO VISIBILITY.

BAJA CALIFORNIA

CITY           SKY/WX    TMP DP  RH WIND       PRES   REMARKS
LA PAZ           N/A    N/A N/A N/A MISG        N/A
TIJUANA        CLEAR     61  57  88 W5        29.92S

NORTHWESTERN MEXICO

CITY           SKY/WX    TMP DP  RH WIND       PRES   REMARKS

NORTHEASTERN MEXICO

CITY           SKY/WX    TMP DP  RH WIND       PRES   REMARKS
MONTERREY      CLOUDY    70  68  94 CALM      29.98F
REYNOSA        PTCLDY    72  68  88 N6        29.95F
CD. VICTORIA   MOCLDY    68  68 100 W5        29.96F

WESTERN MEXICO

CITY           SKY/WX    TMP DP  RH WIND       PRES   REMARKS
DEL BAJIO      CLEAR     61  52  72 CALM      30.19S
GUADALAJARA    PTCLDY    63  57  82 CALM      30.07R
MAZATLAN       PTCLDY    73  66  78 N8        29.76S
P. VALLARTA    CLOUDY    75  75 100 E5        29.78S THUNDER
ZACATECAS      MOCLDY    57  46  67 S17       30.19R

CENTRAL MEXICO

CITY           SKY/WX    TMP DP  RH WIND       PRES   REMARKS
MEXICO CITY    MOCLDY    59  52  77 NW7       30.25F
MORELIA        PTCLDY    59  57  94 CALM      30.13S
QUERETARO      MOCLDY    59  54  82 E10       30.23F
TOLUCA         MOCLDY    50  46  87 W6        30.28F WCI  48

SOUTHERN MEXICO

CITY           SKY/WX    TMP DP  RH WIND       PRES   REMARKS

YUCATAN PENINSULA

CITY           SKY/WX    TMP DP  RH WIND       PRES   REMARKS
CANCUN         TSTM      73  73 100 E9        29.78F VSB 1/2
COZUMEL        LGT RAIN  75  75 100 SE7       29.75F
MERIDA         CLOUDY    73  73 100 E10       29.76F
TAPACHULA      LGT RAIN  75  75 100 CALM      29.84S

CENTRAL AMERICA

CITY           SKY/WX    TMP DP  RH WIND       PRES   REMARKS

CARIBBEAN

CITY           SKY/WX    TMP DP  RH WIND       PRES   REMARKS
CURACAO        PTCLDY    82  77  83 SE8       29.86S HX  91
KINGSTON       LGT RAIN  82  75  78 SE12      29.83F
NASSAU         MOCLDY    77  70  78 CALM      29.91F
SAN JUAN       PTCLDY    79  73  83 CALM      29.94F
SANTO DOMINGO  PTCLDY    75  72  88 NE5       29.92S
ST. CROIX      PTCLDY    75  73  94 N5        29.94F
ST. MAARTEN    PTCLDY    82  73  74 E5        29.92F

$$




USA.gov is the U.S. government's official web portal to all federal, state and local government web resources and services.